カタログに戻る

THOR AGENA D R/B

運用中PO
NORAD 815·ROCKET BODY·🇺🇸 United States

打ち上げ Jun 18, 1964 から Vandenberg Space Force Base

Loading…

次のパス (今後24時間)

TLE

最新Source: Space-Track

元期: Sep 14, 2026, 06:44 UTC

1 00815U 64031C   26257.28062664  .00000104  00000-0  63127-4 0  9992
2 00815  99.8316 218.7373 0012291  49.4029 310.8216 14.28533559233729

AllMySatでTHOR AGENA D R/Bをリアルタイム追跡

Download on the App Store